Showing default

ORBCOMM FM 115, 41186

Orbit data source: Space-Track

ORBCOMM FM 115, 41186 is a payload satellite owned by Orbcomm (US) in LEO that was launched on Tue, 22 Dec 2015 UTC via an FALCON 9 launch vehicle from the Air Force Eastern Test Range (AFETR). Payload-class satellites include a variety of spacecraft equipped with specific instruments for various scientific and technological missions. These include communications satellites like Starlink; space stations such as the ISS; scientific satellites like the Hubble; Earth observation satellites from companies like Planet Labs, Umbra, and HawkEye 360; GPS; miniature CubeSats for education and research; and military/defense satellites.

Loading next visibility...
Identifier
41186, 2015-081H
Orbit
LEO
Last TLE update
11 hours ago
Origin
Manufacturer
SNC Louisville
Mission
Non-operational Commercial Communications
Bus & Motor
SN-100A, Unknown motor
Mass
172 kg wet, 158 kg dry
Launch date (UTC)
2015-12-22 (10 years ago)
Launch vehicle
FALCON 9
Launch site
Air Force Eastern Test Range (AFETR)
Object type
Payload
Rocket body
Debris
Shape & HBR
Box + 1 Pan + 1 Ant, 6.5 m
Radar Cross Section
2.222 m², Medium (>0.1 m² and < 1m²)

Expand to show TLE details & history

TLE from 11 hours ago
0 ORBCOMM FM 115
1 41186U 15081H   25199.20173216  .00000322  00000-0  97305-4 0  9998
2 41186  46.9976 252.0484 0001597 240.2624 119.8104 14.62539691512312
Epoch: 2025-07-18T04:50Z
TLE epoch observation values (Epoch: 2025-07-18T04:50:29.658Z)
Latitude
-0.00006°
Longitude
-116.83181°
Altitude
685.762 km
Speed
7.515 km/s
True Right ascension
16h 48m 11s
True Declination
0° 00' 00"
Sunlit
Object was in full shadow at epoch
Visualization orbit readout
Latitude
-2.22441°
Longitude
-121.16925°
Altitude
685.984 km
Speed
7.515 km/s
Apparent Right ascension
16h 44m 42s
Apparent Declination
-20° 00' 41"
Sunlit
Object is in full shadow
Visualization observer readout
Local Sidereal Time
05:04:42
Azimuth
13.613° NNE
Elevation
-69.639°
Doppler factor
1
Orbital elements
Apogee altitude
687.351 km
Perigee altitude
685.095 km
Semi-major axis
7,064.36 km
Eccentricity
0.00016
Inclination
46.9976°
RAAN
252.0484°
Arg. of periapsis
240.2624°
True anomaly
119.82628°
Mean anomaly
119.8104°
Eccentric anomaly
119.81834°
Mean motion
3.65539 °/min
Orbital period
98.48 mins
BSTAR
0.000097305
Loading maneuver chart data...
Loading SW <> Apogee altitude chart data...
Loading historical data...
Loading historical data...
Loading historical data...
Loading historical data...
Loading historical data...
Loading historical data...
Loading historical data...
|